This is the latest recevied weather packets stored in our database for station/object WA1NHP. If no packets are shown the sender has not sent any weather packets the latest 10 day(s).
| Time | Temp. | Humidity | Pressure | Rain* | Wind** | Luminosity | Snow |
|---|---|---|---|---|---|---|---|
| 1777412044 | 16.67° C | 45% | 1023.9 hPa | 0 mm | - | 139 W/m² | - |
| 1777411444 | 16.67° C | 45% | 1023.9 hPa | 0 mm | - | 142 W/m² | - |
| 1777410844 | 17.22° C | 44% | 1023.9 hPa | 0 mm | - | 155 W/m² | - |
| 1777410244 | 17.22° C | 44% | 1023.9 hPa | 0 mm | - | 181 W/m² | - |
| 1777409644 | 17.22° C | 43% | 1023.9 hPa | 0 mm | - | 206 W/m² | - |
| 1777409044 | 17.78° C | 42% | 1023.9 hPa | 0 mm | - | 229 W/m² | - |
| 1777408444 | 17.78° C | 43% | 1023.9 hPa | 0 mm | - | 248 W/m² | - |
| 1777407843 | 17.78° C | 41% | 1023.9 hPa | 0 mm | - | 322 W/m² | - |
| 1777407244 | 17.78° C | 42% | 1023.9 hPa | 0 mm | - | 258 W/m² | - |
| 1777406644 | 17.78° C | 42% | 1023.9 hPa | 0 mm | - | 221 W/m² | - |
| 1777406043 | 18.33° C | 41% | 1023.9 hPa | 0 mm | - | 246 W/m² | - |
| 1777405444 | 18.89° C | 42% | 1023.9 hPa | 0 mm | - | 308 W/m² | - |
| 1777404844 | 18.33° C | 43% | 1023.9 hPa | 0 mm | - | 631 W/m² | - |
| 1777404243 | 18.89° C | 40% | 1023.9 hPa | 0 mm | - | 445 W/m² | - |
| 1777403644 | 19.44° C | 39% | 1023.9 hPa | 0 mm | - | 605 W/m² | - |
| 1777403043 | 18.89° C | 42% | 1023.9 hPa | 0 mm | - | 749 W/m² | - |
| 1777402443 | 18.89° C | 40% | 1023.9 hPa | 0 mm | - | 744 W/m² | - |
| 1777401844 | 20° C | 41% | 1023.9 hPa | 0 mm | - | 858 W/m² | - |
| 1777401243 | 18.89° C | 42% | 1023.9 hPa | 0 mm | - | 867 W/m² | - |
| 1777400643 | 18.89° C | 43% | 1023.9 hPa | 0 mm | - | 763 W/m² | - |
| 1777400044 | 18.89° C | 41% | 1023.9 hPa | 0 mm | - | 879 W/m² | - |
| 1777399444 | 19.44° C | 41% | 1023.9 hPa | 0 mm | - | 853 W/m² | - |
| 1777398844 | 19.44° C | 41% | 1023.9 hPa | 0 mm | - | 916 W/m² | - |
| 1777398244 | 19.44° C | 39% | 1023.9 hPa | 0 mm | - | 946 W/m² | - |
| 1777397644 | 19.44° C | 41% | 1023.9 hPa | 0 mm | - | 951 W/m² | - |
* Rain latest hour (hover to see other rain measurements)
** Current wind speed in m/s (hover to see current wind gust speed)